SRMSAT

Last updated on Mon Sep 21 2026 00:02:45 GMT+0000 (Coordinated Universal Time)

1 37841U 11058D 26263.01817207 .00000357 00000+0 49981-4 0 9992 2 37841 19.9709 205.4664 0011868 166.7244 270.3270 14.11593351771235
UTC large
Height (km)
Speed (km/s)
/
Latitude / Longitude
Inclination (degrees)
Orbital Period (minutes)
Azimuth
Elevation
Range (km)
Doppler Factor

Next 0 passes for location: London (51.5072 / 0.1276)

No passes found over London.
SRMSAT